Malaga, Spain

5:06 PM CEST on September 21, 2017 (GMT +0200)
Malaga

Weather History for LEMG - February, 2014

Change the Weather History Date:

Sunday, February 23, 2014

  Actual Average Record
Temperature  
Mean Temperature 52 °F -  
Max Temperature 64 °F 64 °F 74 °F (2016)
Min Temperature 39 °F 47 °F 39 °F (2006)
Degree Days  
Heating Degree Days 14    
Growing Degree Days 2 (Base 50)    
Moisture  
Dew Point 41 °F    
Average Humidity 66    
Maximum Humidity 88    
Minimum Humidity 26    
Precipitation  
Precipitation 0.00 in 0.08 in - ()
Sea Level Pressure  
Sea Level Pressure 30.12 in    
Wind  
Wind Speed 8 mph ()    
Max Wind Speed 12 mph    
Max Gust Speed -    
Visibility 8.1 miles    
Events      
Averages and records for this station are not official NWS values.
T = Trace of Precipitation, MM = Missing Value Source: Averaged Metar Reports

Daily Weather History Graph

Daily Weather History Graph

Search for Another Location

Airport or City:

Trip Planner

Search our weather history database for the weather conditions in past years. The results will help you decide how hot, cold, wet, or windy it might be!

Date:

Astronomy

Feb. 23, 2014 Rise Set
Actual Time 7:56 AM CET 7:06 PM CET
Civil Twilight 7:30 AM CET 7:32 PM CET
Nautical Twilight 7:00 AM CET 8:02 PM CET
Astronomical Twilight 6:30 AM CET 8:32 PM CET
Moon 2:35 AM CET (2/23) 1:00 PM CET (2/23)
Length of Visible Light 12h 01m
Length of Day
11h 09m
Last Quarter, 42% of the Moon is Illuminated
Feb 23
Last Quarter
Mar 1
New
Mar 8
First Quarter
Mar 16
Full
Mar 24
Last Quarter

Hourly Weather History & Observations

Time (CET) Temp. Windchill Dew Point Humidity Pressure Visibility Wind Dir Wind Speed Gust Speed Precip Events Conditions
12:00 AM 48 °F - 38 °F 60% 30.27 in - West 6.9 mph - -  
12:00 AM 44.6 °F 41.4 °F 37.4 °F 76% 30.24 in - WNW 5.8 mph - N/A   Clear
12:30 AM 46.4 °F 42.4 °F 39.2 °F 76% 30.24 in - West 8.1 mph - N/A   Clear
1:00 AM 46 °F - 38 °F 66% 30.26 in 12 mi West 9.2 mph - -  
1:00 AM 46.4 °F 42.4 °F 39.2 °F 76% 30.24 in - West 8.1 mph - N/A   Clear
1:30 AM 44.6 °F 39.7 °F 37.4 °F 76% 30.24 in - West 9.2 mph - N/A   Clear
2:00 AM 46 °F - 38 °F 63% 30.24 in - West 8.1 mph - -  
2:00 AM 44.6 °F 40.2 °F 37.4 °F 76% 30.21 in - West 8.1 mph - N/A   Clear
2:30 AM 42.8 °F 38.0 °F 37.4 °F 81% 30.21 in - WNW 8.1 mph - N/A   Clear
3:00 AM 44 °F - 37 °F 68% 30.22 in - West 9.2 mph - -  
3:00 AM 42.8 °F 37.5 °F 37.4 °F 81% 30.21 in 6.2 mi WNW 9.2 mph - N/A   Partly Cloudy
3:30 AM 41.0 °F 35.2 °F 37.4 °F 87% 30.18 in 6.2 mi WNW 9.2 mph - N/A   Scattered Clouds
4:00 AM 43 °F - 36 °F 69% 30.21 in 12 mi West 10.4 mph - -   Scattered Clouds
4:00 AM 41.0 °F 34.7 °F 37.4 °F 87% 30.18 in 6.2 mi WNW 10.4 mph - N/A   Partly Cloudy
4:30 AM 42.8 °F 37.5 °F 37.4 °F 81% 30.18 in 6.2 mi West 9.2 mph - N/A   Partly Cloudy
5:00 AM 44 °F - 36 °F 64% 30.19 in - West 9.2 mph - -  
5:00 AM 42.8 °F 37.5 °F 35.6 °F 76% 30.18 in - West 9.2 mph - N/A   Clear
5:30 AM 42.8 °F 38.0 °F 35.6 °F 76% 30.15 in - WNW 8.1 mph - N/A   Clear
6:00 AM 41 °F - 36 °F 77% 30.18 in - WNW 6.9 mph - -  
6:00 AM 39.2 °F 35.0 °F 35.6 °F 87% 30.15 in 6.2 mi WNW 5.8 mph - N/A   Partly Cloudy
6:30 AM 39.2 °F 33.0 °F 35.6 °F 87% 30.15 in - WNW 9.2 mph - N/A   Clear
7:00 AM 42 °F - 36 °F 71% 30.18 in 12 mi WNW 10.4 mph - -  
7:00 AM 39.2 °F 32.5 °F 35.6 °F 87% 30.15 in - WNW 10.4 mph - N/A   Clear
7:30 AM 39.2 °F 33.0 °F 35.6 °F 87% 30.15 in - WNW 9.2 mph - N/A   Clear
8:00 AM 42 °F - 36 °F 74% 30.17 in - WNW 9.2 mph - -  
8:00 AM 39.2 °F 33.0 °F 35.6 °F 87% 30.15 in 6.2 mi WNW 9.2 mph - N/A   Partly Cloudy
8:30 AM 41.0 °F 34.7 °F 37.4 °F 87% 30.15 in - West 10.4 mph - N/A   Clear
9:00 AM 44 °F - 38 °F 72% 30.17 in - WNW 9.2 mph - -  
9:00 AM 42.8 °F 37.5 °F 37.4 °F 81% 30.15 in - WNW 9.2 mph - N/A   Clear
9:30 AM 44.6 °F 40.2 °F 39.2 °F 81% 30.15 in - WNW 8.1 mph - N/A   Clear
10:00 AM 49 °F - 41 °F 65% 30.16 in 22 mi WNW 5.8 mph - -  
10:00 AM 48.2 °F - 41.0 °F 76% 30.15 in - WNW 8.1 mph - N/A   Clear
10:30 AM 51.8 °F - 42.8 °F 71% 30.12 in - Variable 2.3 mph - N/A   Clear
11:00 AM 60 °F - 43 °F 43% 30.14 in - SE 4.6 mph - -  
11:00 AM 59.0 °F - 42.8 °F 55% 30.12 in - Calm Calm - N/A   Clear
11:30 AM 59.0 °F - 42.8 °F 55% 30.12 in - SE 8.1 mph - N/A   Clear
12:00 PM 63 °F - 42 °F 35% 30.13 in - SE 9.2 mph - -  
12:00 PM 59.0 °F - 42.8 °F 55% 30.12 in - SE 9.2 mph - N/A   Clear
12:30 PM 60.8 °F - 42.8 °F 52% 30.12 in - SE 8.1 mph - N/A   Clear
1:00 PM 64 °F - 41 °F 31% 30.12 in 22 mi ESE 11.5 mph - -  
1:00 PM 60.8 °F - 42.8 °F 52% 30.12 in - ESE 10.4 mph - N/A   Clear
1:30 PM 60.8 °F - 41.0 °F 48% 30.09 in - SE 10.4 mph - N/A   Clear
2:00 PM 65 °F - 41 °F 30% 30.10 in - ESE 11.5 mph - -  
2:00 PM 60.8 °F - 41.0 °F 48% 30.09 in - SE 10.4 mph - N/A   Clear
2:30 PM 60.8 °F - 41.0 °F 48% 30.06 in - ESE 11.5 mph - N/A   Clear
3:00 PM 65 °F - 38 °F 26% 30.07 in - ESE 11.5 mph - -  
3:00 PM 60.8 °F - 39.2 °F 45% 30.06 in - SE 11.5 mph - N/A   Clear
3:30 PM 60.8 °F - 41.0 °F 48% 30.06 in - ESE 11.5 mph - N/A   Clear
4:00 PM 64 °F - 40 °F 30% 30.06 in 22 mi ESE 11.5 mph - -  
4:00 PM 59.0 °F - 39.2 °F 48% 30.04 in - ESE 11.5 mph - N/A   Clear
4:30 PM 59.0 °F - 41.0 °F 51% 30.04 in - ESE 11.5 mph - N/A   Clear
5:00 PM 64 °F - 38 °F 27% 30.04 in - ESE 11.5 mph - -  
5:00 PM 59.0 °F - 41.0 °F 51% 30.04 in - SE 10.4 mph - N/A   Clear
5:30 PM 59.0 °F - 41.0 °F 51% 30.04 in - ESE 9.2 mph - N/A   Clear
6:00 PM 61 °F - 41 °F 36% 30.04 in - ESE 9.2 mph - -  
6:00 PM 57.2 °F - 42.8 °F 59% 30.01 in - ESE 8.1 mph - N/A   Clear
6:30 PM 57.2 °F - 42.8 °F 59% 30.04 in - ESE 9.2 mph - N/A   Clear
7:00 PM 58 °F - 45 °F 51% 30.04 in 19 mi ESE 6.9 mph - -   Clear
7:00 PM 55.4 °F - 44.6 °F 67% 30.04 in - ESE 6.9 mph - N/A   Clear
7:30 PM 55.4 °F - 46.4 °F 72% 30.04 in - ESE 6.9 mph - N/A   Clear
8:00 PM 56 °F - 47 °F 63% 30.05 in - ESE 8.1 mph - -  
8:00 PM 53.6 °F - 48.2 °F 82% 30.04 in 6.2 mi ESE 6.9 mph - N/A   Partly Cloudy
8:30 PM 55.4 °F - 48.2 °F 77% 30.04 in 6.2 mi ESE 6.9 mph - N/A   Scattered Clouds
9:00 PM 56 °F - 49 °F 69% 30.06 in - ESE 10.4 mph - -  
9:00 PM 55.4 °F - 48.2 °F 77% 30.04 in 6.2 mi ESE 9.2 mph - N/A   Scattered Clouds
9:30 PM 53.6 °F - 50.0 °F 88% 30.04 in 6.2 mi ESE 6.9 mph - N/A   Scattered Clouds
10:00 PM 56 °F - 49 °F 70% 30.06 in 12 mi ESE 9.2 mph - -   Partly Cloudy
10:00 PM 55.4 °F - 50.0 °F 82% 30.04 in 6.2 mi ESE 8.1 mph - N/A   Scattered Clouds
10:30 PM 55.4 °F - 50.0 °F 82% 30.06 in 6.2 mi SE 8.1 mph - N/A   Scattered Clouds
11:00 PM 56 °F - 49 °F 69% 30.07 in - ESE 8.1 mph - -  
11:00 PM 53.6 °F - 50.0 °F 88% 30.06 in 6.2 mi ESE 8.1 mph - N/A   Scattered Clouds
11:30 PM 53.6 °F - 50.0 °F 88% 30.06 in 6.2 mi ESE 5.8 mph - N/A   Scattered Clouds